Location: Monroe
(41.9160°N, 83.3980°W)
Time: 19:56:03
(UTC-04:00)

Amateur Radio Satellites - All Passes

Search period start: 04 August 2015 19:26
Search period end: 05 August 2015 19:26
Location: Monroe, 41.9160°N, 83.3980°W

Satellite Date Start Highest point End Downlink Frequencies (MHz)
Time Altitude Azimuth
ISS 04 Aug 19:31:32 19:32:57 13° 131° (SE) 19:34:29 145.825
PCSat 04 Aug 19:35:09 19:39:44 27° 251° (WSW) 19:44:10 145.827
CUBESAT XI-V 04 Aug 19:39:50 19:44:26 66° 101° (ESE) 19:48:59 437.345
Cubesat XI-IV 04 Aug 19:41:34 19:46:38 41° 262° (W) 19:51:41 437.490
GONETS M04 04 Aug 19:46:50 19:53:19 23° 279° (W) 19:59:26
STRAND 1 04 Aug 20:06:11 20:10:49 35° 96° (E) 20:15:29 437.568
PHONESAT 2.4 04 Aug 20:11:47 20:15:08 44° 164° (SSE) 20:18:30 2401.200-2431.200
DOVE 4 04 Aug 20:12:48 20:15:36 18° 67° (ENE) 20:18:34 437.250
COMPASS 1 04 Aug 20:15:23 20:15:43 10° 63° (ENE) 20:16:19 437.405
VERMONT LUNAR 04 Aug 20:30:51 20:34:00 63° 187° (S) 20:37:09 437.305
SEEDS 04 Aug 20:34:00 20:37:08 21° 68° (ENE) 20:40:23 437.485
Cosmos 2499 04 Aug 20:39:14 20:47:19 41° 272° (W) 20:55:18 435.465 / 435.565
CUTE-I 04 Aug 20:39:23 20:42:01 13° 273° (W) 20:44:21 437.470
PRISM 04 Aug 20:39:39 20:43:44 62° 101° (E) 20:47:47 437.425
GOMX 1 04 Aug 20:42:13 20:46:21 65° 75° (ENE) 20:50:28 467.674
CUTE 1.7 + AOD 2 04 Aug 20:42:38 20:46:24 31° 70° (ENE) 20:50:14 437.475
AAUSAT CUBESAT 2 04 Aug 20:50:16 20:53:23 21° 68° (ENE) 20:56:36 437.432
CANX-2 04 Aug 20:51:20 20:55:23 43° 73° (ENE) 20:59:29 2200.000
BRITE-PL 04 Aug 20:51:43 20:55:57 54° 260° (W) 21:00:03 437.365/2234.400
HO-68 04 Aug 21:02:19 21:09:25 74° 71° (ENE) 21:16:35 435.675
Oscar 11 04 Aug 21:03:37 21:05:49 14° 64° (ENE) 21:08:14 145.826/435.025
ISS 04 Aug 21:05:45 21:09:01 76° 326° (NW) 21:12:17 145.825
UWE-3 04 Aug 21:11:05 21:13:03 13° 64° (ENE) 21:15:15 435.000/436.395/437.385
CUBESAT XI-V 04 Aug 21:18:58 21:21:23 14° 297° (WNW) 21:23:36 437.345
RS-15 04 Aug 21:22:09 21:32:30 54° 113° (ESE) 21:43:18 29.354- 29.394
CINEMA 3 04 Aug 21:28:47 21:32:51 54° 73° (ENE) 21:37:02 145.822/145.860
CUBEBUG 2 04 Aug 21:33:16 21:36:51 28° 69° (ENE) 21:40:36 437.445
DELFI C3 04 Aug 21:43:08 21:46:19 23° 69° (ENE) 21:49:36 145.870
STRAND 1 04 Aug 21:45:34 21:49:57 29° 293° (WNW) 21:54:13 437.568
COMPASS 1 04 Aug 21:46:35 21:50:48 80° 258° (WSW) 21:55:04 437.405
DOVE 4 04 Aug 21:49:20 21:53:11 36° 263° (W) 21:57:03 437.250
PHONESAT 2.4 04 Aug 21:49:26 21:52:57 71° 181° (S) 21:56:27 2401.200-2431.200
Cosmos 2491 04 Aug 21:57:20 22:01:12 14° 54° (NE) 22:05:39 435.465 / 435.565
VERMONT LUNAR 04 Aug 22:07:44 22:10:26 26° 203° (SSW) 22:13:08 437.305
SEEDS 04 Aug 22:08:48 22:12:43 35° 263° (W) 22:16:39 437.485
ZACube-1 04 Aug 22:11:59 22:15:59 44° 72° (ENE) 22:20:09 437.345
PRISM 04 Aug 22:17:01 22:18:43 12° 297° (WNW) 22:20:13 437.425
CUTE 1.7 + AOD 2 04 Aug 22:18:55 22:22:22 23° 267° (W) 22:25:45 437.475
AAUSAT CUBESAT 2 04 Aug 22:24:56 22:28:47 34° 264° (W) 22:32:38 437.432
HUMSAT D 04 Aug 22:25:50 22:29:15 26° 69° (ENE) 22:32:49 437.325/437.525
CANX-2 04 Aug 22:28:44 22:31:34 17° 270° (W) 22:34:15 2200.000
FUNcube-1 04 Aug 22:31:35 22:35:47 72° 76° (ENE) 22:40:07 145.935
Oscar 11 04 Aug 22:37:18 22:41:34 58° 260° (W) 22:45:54 145.826/435.025
ESTCUBE 1 04 Aug 22:38:09 22:39:39 12° 62° (ENE) 22:41:22 437.505/2401.250
UKube-1 04 Aug 22:39:54 22:43:23 25° 68° (ENE) 22:46:57 .
ISS 04 Aug 22:43:24 22:45:52 19° 345° (NNW) 22:48:19 145.825
UWE-3 04 Aug 22:44:57 22:49:07 59° 261° (W) 22:53:24 435.000/436.395/437.385
50 SAT 04 Aug 22:44:58 22:47:40 19° 68° (ENE) 22:50:31 437.505
TIGRISAT 04 Aug 22:49:36 22:50:22 10° 86° (E) 22:51:27 435.000
ANTELSAT 04 Aug 22:52:22 22:54:04 12° 87° (E) 22:56:03 437.575/2403.000
HO-68 04 Aug 22:52:41 22:57:56 21° 270° (W) 23:02:54 435.675
AIST 1 04 Aug 22:52:59 22:56:26 24° 73° (ENE) 22:59:56
M-CUBED/EXP-1 PRIME 04 Aug 22:54:42 22:59:03 34° 100° (E) 23:03:16 437.505
BEESAT 2 04 Aug 23:04:55 23:08:29 30° 115° (ESE) 23:12:08 435.950
AISAT 04 Aug 23:06:15 23:10:07 31° 70° (ENE) 23:14:02 437.250
CUBEBUG 1 04 Aug 23:08:26 23:11:26 19° 66° (ENE) 23:14:32 437.445
CINEMA 3 04 Aug 23:08:39 23:10:32 12° 272° (W) 23:12:14 145.822/145.860
CUBEBUG 2 04 Aug 23:10:02 23:13:34 25° 267° (W) 23:17:06 437.445
DX 1 04 Aug 23:13:31 23:17:47 63° 74° (ENE) 23:22:06 434.975-435.025
DELFI C3 04 Aug 23:17:42 23:21:16 28° 265° (W) 23:24:49 145.870
AUBIESAT-1 04 Aug 23:19:52 23:24:31 53° 104° (ESE) 23:28:57 437.475
PHONESAT 2.4 04 Aug 23:27:24 23:30:45 42° 197° (SSW) 23:34:05 2401.200-2431.200
AIST 2 04 Aug 23:29:36 23:31:16 12° 110° (ESE) 23:33:10 435.215
RS-15 04 Aug 23:34:32 23:45:07 50° 317° (NW) 23:56:06 29.354- 29.394
DUCHIFAT 1 04 Aug 23:35:48 23:36:49 11° 88° (E) 23:38:06 145.980
BEESAT 3 04 Aug 23:38:09 23:42:14 90° 209° (SSW) 23:46:21 437.485
NANOSAT C BR1 04 Aug 23:40:58 23:42:56 13° 89° (E) 23:45:08 145.865
QB50P1 04 Aug 23:41:22 23:43:28 14° 90° (E) 23:45:46 145.935-145.965
UNISAT 6 04 Aug 23:41:40 23:46:04 39° 97° (E) 23:50:31 437.425
VELOX 1 04 Aug 23:43:22 23:47:46 76° 76° (ENE) 23:52:11 145.980
ZACube-1 04 Aug 23:49:57 23:52:40 16° 270° (W) 23:55:15 437.345
Cosmos 2491 04 Aug 23:51:29 00:00:11 69° 79° (ENE) 00:08:53 435.465 / 435.565
HUMSAT D 05 Aug 00:01:23 00:04:57 26° 266° (W) 00:08:30 437.325/437.525
ESTCUBE 1 05 Aug 00:11:25 00:15:57 78° 259° (WSW) 00:20:30 437.505/2401.250
YUBILEINY 05 Aug 00:11:56 00:19:44 40° 87° (E) 00:27:45 435.215
UKube-1 05 Aug 00:15:35 00:19:25 30° 264° (W) 00:23:12 .
50 SAT 05 Aug 00:18:29 00:22:02 33° 263° (W) 00:25:37 437.505
ISS 05 Aug 00:21:10 00:23:11 15° 5° (N) 00:25:14 145.825
BUGSAT 1 05 Aug 00:22:52 00:26:09 23° 94° (E) 00:29:30 437.445
TIGRISAT 05 Aug 00:23:03 00:27:47 81° 284° (WNW) 00:32:29 435.000
POLYITAN 1 05 Aug 00:25:10 00:29:16 42° 99° (E) 00:33:22 437.675
ANTELSAT 05 Aug 00:26:42 00:31:25 72° 285° (WNW) 00:36:07 437.575/2403.000
M-CUBED/EXP-1 PRIME 05 Aug 00:29:34 00:33:41 28° 297° (WNW) 00:37:38 437.505
AIST 1 05 Aug 00:30:27 00:34:04 27° 270° (W) 00:37:37
O/OREOS (USA 219) 05 Aug 00:31:54 00:33:53 13° 100° (E) 00:36:07 437.305
POPSAT HIP 1 05 Aug 00:40:24 00:44:38 62° 101° (E) 00:48:53 437.405
BEESAT 2 05 Aug 00:42:55 00:46:31 28° 313° (NW) 00:50:06 435.950
AISAT 05 Aug 00:43:08 00:46:44 24° 266° (W) 00:50:16 437.250
CUBEBUG 1 05 Aug 00:43:25 00:47:32 41° 262° (W) 00:51:38 437.445
QB50P2 05 Aug 00:49:09 00:53:27 82° 102° (ESE) 00:57:44 145.880/145.840
DX 1 05 Aug 00:52:50 00:54:32 12° 271° (W) 00:55:59 434.975-435.025
AUBIESAT-1 05 Aug 00:55:24 00:58:48 19° 301° (WNW) 01:01:59 437.475
TISAT 1 05 Aug 00:58:06 01:02:08 51° 73° (ENE) 01:06:13 437.305
SPROUT 05 Aug 01:02:48 01:07:04 86° 257° (WSW) 01:11:21 437.525
ITUPSAT 1 05 Aug 01:04:59 01:06:52 13° 61° (ENE) 01:08:58 437.325
AIST 2 05 Aug 01:05:08 01:09:22 67° 305° (NW) 01:13:37 435.215
PHONESAT 2.4 05 Aug 01:06:30 01:08:12 13° 212° (SSW) 01:09:49 2401.200-2431.200
DUCHIFAT 1 05 Aug 01:08:54 01:13:08 65° 285° (WNW) 01:17:20 145.980
NANOSAT C BR1 05 Aug 01:15:00 01:19:10 54° 286° (WNW) 01:23:19 145.865
QB50P1 05 Aug 01:15:33 01:19:42 52° 287° (WNW) 01:23:51 145.935-145.965
BEESAT 3 05 Aug 01:18:51 01:20:48 13° 322° (NW) 01:22:40 437.485
UNISAT 6 05 Aug 01:18:55 01:22:38 23° 293° (WNW) 01:26:15 437.425
Cosmos 2491 05 Aug 01:49:33 01:56:23 25° 277° (W) 02:02:54 435.465 / 435.565
RS-15 05 Aug 01:52:40 02:01:16 24° 349° (N) 02:10:04 29.354- 29.394
BEESAT 05 Aug 01:55:28 01:59:51 38° 70° (ENE) 02:04:19 436.000
ISS 05 Aug 01:57:21 02:00:21 33° 25° (NNE) 02:03:21 145.825
BUGSAT 1 05 Aug 01:58:04 02:01:37 28° 290° (WNW) 02:05:08 437.445
POLYITAN 1 05 Aug 02:01:54 02:04:52 18° 294° (WNW) 02:07:43 437.675
Oscar 19 05 Aug 02:04:07 02:07:51 20° 91° (E) 02:11:44 437.125/150
YUBILEINY 05 Aug 02:08:13 02:16:31 46° 287° (WNW) 02:24:49 435.215
O/OREOS (USA 219) 05 Aug 02:08:25 02:12:51 59° 296° (WNW) 02:17:20 437.305
SWISSCUBE 05 Aug 02:16:17 02:21:01 67° 75° (ENE) 02:25:49 437.505
Cosmos 2504 05 Aug 02:16:58 02:22:49 28° 84° (E) 02:29:11 435.465 / 435.565
POPSAT HIP 1 05 Aug 02:18:01 02:20:03 13° 296° (WNW) 02:21:54 437.405
QB50P2 05 Aug 02:28:14 02:28:45 10° 298° (WNW) 02:29:03 145.880/145.840
TISAT 1 05 Aug 02:36:07 02:38:17 13° 270° (W) 02:40:14 437.305
ITUPSAT 1 05 Aug 02:39:20 02:44:09 81° 257° (WSW) 02:49:00 437.325
STARS 05 Aug 02:41:20 02:42:29 11° 62° (ENE) 02:43:53 437.465
AIST 2 05 Aug 02:47:30 02:48:48 11° 325° (NW) 02:49:57 435.215
KKS-1 05 Aug 03:15:38 03:19:46 41° 71° (ENE) 03:23:57 437.445
ISS 05 Aug 03:33:47 03:36:47 34° 222° (SW) 03:39:46 145.825
ITAMSAT 1 05 Aug 03:33:54 03:38:40 36° 97° (E) 03:43:26 435.822/435.867
BEESAT 05 Aug 03:33:58 03:37:50 23° 267° (W) 03:41:37 436.000
Gurwin Techsat 1B 05 Aug 03:36:40 03:41:45 45° 98° (E) 03:46:50 435.225
Oscar 19 05 Aug 03:42:31 03:47:32 50° 289° (WNW) 03:52:31 437.125/150
SWISSCUBE 05 Aug 03:57:01 03:59:26 13° 272° (W) 04:01:35 437.505
AO-7 05 Aug 03:59:24 04:03:40 16° 86° (E) 04:08:31 29.400- 29.500
CUSAT 1 05 Aug 04:04:59 04:06:42 16° 94° (E) 04:08:27 437.405
JAS-2 05 Aug 04:05:08 04:12:26 41° 94° (E) 04:19:34 435.910
Cosmos 2504 05 Aug 04:07:29 04:14:34 54° 284° (WNW) 04:22:09 435.465 / 435.565
RS-15 05 Aug 04:09:17 04:18:48 29° 24° (NNE) 04:28:52 29.354- 29.394
STARS 05 Aug 04:14:00 04:18:22 77° 257° (WSW) 04:22:46 437.465
HORYU 2 05 Aug 04:15:34 04:16:48 11° 88° (E) 04:18:19 437.375
DANDE 05 Aug 04:16:17 04:17:47 14° 95° (E) 04:19:18 436.750
MOZHAYETS 4 05 Aug 04:37:20 04:41:35 37° 71° (ENE) 04:45:54
KKS-1 05 Aug 04:53:27 04:56:37 19° 268° (W) 04:59:40 437.445
GONETS M04 05 Aug 04:57:50 05:02:28 17° 78° (ENE) 05:07:37
ITAMSAT 1 05 Aug 05:13:38 05:18:04 28° 294° (WNW) 05:22:23 435.822/435.867
Gurwin Techsat 1B 05 Aug 05:17:14 05:21:29 24° 295° (WNW) 05:25:38 435.225
HORYU 2 05 Aug 05:49:30 05:54:00 70° 286° (WNW) 05:58:28 437.375
AO-7 05 Aug 05:49:33 05:57:57 81° 107° (ESE) 06:06:16 29.400- 29.500
JAS-2 05 Aug 05:50:04 05:57:30 46° 293° (WNW) 06:04:40 435.910
DANDE 05 Aug 05:59:20 06:00:50 13° 287° (WNW) 06:02:10 436.750
MOZHAYETS 4 05 Aug 06:15:16 06:18:57 22° 268° (W) 06:22:33
RS-15 05 Aug 06:22:09 06:33:54 71° 52° (NE) 06:46:06 29.354- 29.394
CUBESAT XI-V 05 Aug 06:43:16 06:47:54 66° 75° (ENE) 06:52:32 437.345
GONETS M04 05 Aug 06:49:27 06:58:09 85° 97° (E) 07:06:54
CUTE-I 05 Aug 07:13:05 07:17:41 30° 95° (E) 07:22:19 437.470
STRAND 1 05 Aug 07:22:14 07:27:13 53° 71° (ENE) 07:32:13 437.568
BEESAT 2 05 Aug 07:23:30 07:26:48 23° 45° (NE) 07:30:05 435.950
Cosmos 2499 05 Aug 07:23:37 07:30:05 34° 86° (E) 07:37:11 435.465 / 435.565
PRISM 05 Aug 07:29:44 07:33:44 47° 73° (ENE) 07:37:46 437.425
AO-7 05 Aug 07:43:29 07:49:58 25° 306° (NW) 07:56:11 29.400- 29.500
AIST 2 05 Aug 07:49:33 07:51:29 13° 37° (NE) 07:53:32 435.215
BEESAT 3 05 Aug 07:56:21 08:00:22 59° 54° (NE) 08:04:18 437.485
Cubesat XI-IV 05 Aug 07:58:03 08:03:24 78° 102° (ESE) 08:08:43 437.490
CUBESAT XI-V 05 Aug 08:23:42 08:25:52 13° 272° (W) 08:27:47 437.345
HO-68 05 Aug 08:32:52 08:35:11 12° 84° (E) 08:38:03 435.675
PCSat 05 Aug 08:33:31 08:38:23 36° 112° (ESE) 08:43:21 145.827
RS-15 05 Aug 08:35:21 08:45:47 36° 252° (WSW) 08:56:09 29.354- 29.394
GOMX 1 05 Aug 08:43:22 08:46:44 20° 92° (E) 08:50:23 467.674
GONETS M04 05 Aug 08:49:58 08:56:21 21° 299° (WNW) 09:02:21
CUTE-I 05 Aug 08:52:59 08:57:49 35° 292° (WNW) 09:02:34 437.470
BRITE-PL 05 Aug 08:54:57 08:59:14 41° 98° (E) 09:03:50 437.365/2234.400
BEESAT 2 05 Aug 09:01:11 09:04:57 36° 244° (WSW) 09:08:38 435.950
SO-50 05 Aug 09:02:54 09:07:33 56° 119° (ESE) 09:12:22 436.795
STRAND 1 05 Aug 09:03:08 09:06:47 19° 269° (W) 09:10:17 437.568
PRISM 05 Aug 09:07:02 09:09:28 15° 269° (W) 09:11:44 437.425
Cosmos 2499 05 Aug 09:15:44 09:22:59 48° 287° (WNW) 09:30:49 435.465 / 435.565
CINEMA 3 05 Aug 09:24:02 09:26:35 15° 89° (E) 09:29:25 145.822/145.860
AIST 2 05 Aug 09:26:32 09:30:45 87° 56° (NE) 09:34:53 435.215
COMPASS 1 05 Aug 09:30:48 09:33:23 16° 90° (E) 09:36:07 437.405
BEESAT 3 05 Aug 09:35:58 09:37:50 13° 250° (WSW) 09:39:32 437.485
Cubesat XI-IV 05 Aug 09:39:52 09:42:55 15° 299° (WNW) 09:45:46 437.490
M-CUBED/EXP-1 PRIME 05 Aug 09:42:35 09:46:33 43° 66° (ENE) 09:50:53 437.505
DOVE 4 05 Aug 09:46:32 09:51:10 53° 99° (E) 09:56:05 437.250
SEEDS 05 Aug 09:52:30 09:56:26 36° 97° (E) 10:00:21 437.485
ANTELSAT 05 Aug 09:52:42 09:54:03 11° 62° (ENE) 09:55:38 437.575/2403.000
CUTE 1.7 + AOD 2 05 Aug 10:02:40 10:06:55 59° 100° (E) 10:11:08 437.475
AUBIESAT-1 05 Aug 10:07:11 10:11:21 69° 70° (ENE) 10:15:52 437.475
AAUSAT CUBESAT 2 05 Aug 10:07:12 10:11:03 34° 96° (E) 10:14:53 437.432
CANX-2 05 Aug 10:11:45 10:16:05 84° 102° (ESE) 10:20:21 2200.000
PCSat 05 Aug 10:16:54 10:21:50 35° 310° (NW) 10:26:46 145.827
HO-68 05 Aug 10:17:04 10:24:17 75° 104° (ESE) 10:31:29 435.675
GOMX 1 05 Aug 10:20:38 10:25:03 44° 287° (WNW) 10:29:44 467.674
FUNcube-1 05 Aug 10:20:49 10:23:16 15° 89° (E) 10:25:56 145.935
YUBILEINY 05 Aug 10:21:50 10:27:48 20° 60° (ENE) 10:34:09 435.215
Oscar 11 05 Aug 10:24:43 10:28:16 24° 94° (E) 10:31:51 145.826/435.025
BRITE-PL 05 Aug 10:34:13 10:37:36 21° 292° (WNW) 10:41:02 437.365/2234.400
UWE-3 05 Aug 10:34:27 10:38:24 28° 94° (E) 10:42:27 435.000/436.395/437.385
NANOSAT C BR1 05 Aug 10:35:09 10:36:19 11° 63° (ENE) 10:37:43 145.865
QB50P1 05 Aug 10:35:40 10:37:02 12° 63° (ENE) 10:38:36 145.935-145.965
O/OREOS (USA 219) 05 Aug 10:39:02 10:43:02 29° 58° (ENE) 10:47:04 437.305
UNISAT 6 05 Aug 10:41:05 10:45:04 35° 70° (ENE) 10:49:11 437.425
SO-50 05 Aug 10:44:33 10:48:28 23° 319° (NW) 10:52:23 436.795
DELFI C3 05 Aug 10:55:53 10:59:36 34° 97° (E) 11:03:18 145.870
CUBEBUG 2 05 Aug 10:59:18 11:03:59 64° 100° (E) 11:08:42 437.445
CINEMA 3 05 Aug 10:59:28 11:04:12 63° 285° (WNW) 11:09:05 145.822/145.860
Cosmos 2491 05 Aug 11:01:41 11:05:38 15° 77° (ENE) 11:10:13 435.465 / 435.565
DX 1 05 Aug 11:04:39 11:04:58 10° 88° (E) 11:05:35 434.975-435.025
COMPASS 1 05 Aug 11:05:17 11:09:19 42° 287° (WNW) 11:13:16 437.405
BUGSAT 1 05 Aug 11:13:59 11:16:38 18° 67° (ENE) 11:19:25 437.445
POLYITAN 1 05 Aug 11:18:34 11:22:19 33° 71° (ENE) 11:26:09 437.675
M-CUBED/EXP-1 PRIME 05 Aug 11:18:38 11:21:38 18° 265° (W) 11:24:39 437.505
TIGRISAT 05 Aug 11:21:58 11:26:21 88° 257° (WSW) 11:30:52 435.000
AIST 1 05 Aug 11:24:09 11:26:24 14° 87° (E) 11:28:50
DOVE 4 05 Aug 11:25:21 11:28:38 18° 293° (WNW) 11:31:51 437.250
ANTELSAT 05 Aug 11:25:50 11:30:13 78° 258° (WSW) 11:34:45 437.575/2403.000
SEEDS 05 Aug 11:28:48 11:32:00 20° 293° (WNW) 11:35:05 437.485
POPSAT HIP 1 05 Aug 11:33:23 11:37:24 47° 73° (ENE) 11:41:28 437.405
VELOX 1 05 Aug 11:35:00 11:37:13 14° 90° (E) 11:39:38 145.980
ZACube-1 05 Aug 11:35:51 11:40:28 87° 284° (WNW) 11:45:04 437.345
CUTE 1.7 + AOD 2 05 Aug 11:40:10 11:42:23 14° 296° (WNW) 11:44:24 437.475
QB50P2 05 Aug 11:42:09 11:46:18 63° 74° (ENE) 11:50:29 145.880/145.840
AAUSAT CUBESAT 2 05 Aug 11:43:16 11:46:27 20° 292° (WNW) 11:49:30 437.432
HUMSAT D 05 Aug 11:44:08 11:48:19 46° 98° (E) 11:52:30 437.325/437.525
AUBIESAT-1 05 Aug 11:45:08 11:46:42 11° 269° (W) 11:48:03 437.475
50 SAT 05 Aug 11:53:24 11:56:43 25° 95° (E) 12:00:03 437.505
FUNcube-1 05 Aug 11:55:30 11:59:59 56° 286° (WNW) 12:04:28 145.935
Oscar 11 05 Aug 12:00:37 12:04:28 30° 290° (WNW) 12:08:14 145.826/435.025
DUCHIFAT 1 05 Aug 12:01:12 12:05:23 85° 257° (WSW) 12:09:36 145.980
UKube-1 05 Aug 12:02:05 12:06:11 41° 99° (E) 12:10:17 .
ESTCUBE 1 05 Aug 12:04:30 12:07:52 21° 92° (E) 12:11:21 437.505/2401.250
HO-68 05 Aug 12:05:56 12:11:24 23° 302° (WNW) 12:16:40 435.675
NANOSAT C BR1 05 Aug 12:07:28 12:11:38 70° 258° (WSW) 12:15:50 145.865
QB50P1 05 Aug 12:08:13 12:12:23 68° 258° (WSW) 12:16:36 145.935-145.965
UWE-3 05 Aug 12:10:49 12:14:54 31° 290° (WNW) 12:18:59 435.000/436.395/437.385
YUBILEINY 05 Aug 12:17:10 12:26:05 89° 257° (WSW) 12:34:56 435.215
O/OREOS (USA 219) 05 Aug 12:18:26 12:22:26 29° 255° (WSW) 12:26:22 437.305
UNISAT 6 05 Aug 12:18:30 12:21:59 22° 268° (W) 12:25:25 437.425
DELFI C3 05 Aug 12:31:30 12:34:27 19° 292° (WNW) 12:37:16 145.870
CUBEBUG 1 05 Aug 12:31:44 12:35:39 33° 97° (E) 12:39:37 437.445
AISAT 05 Aug 12:32:14 12:36:37 61° 101° (E) 12:41:00 437.250
DX 1 05 Aug 12:37:28 12:41:48 72° 285° (WNW) 12:46:07 434.975-435.025
CUBEBUG 2 05 Aug 12:37:28 12:40:13 15° 296° (WNW) 12:42:47 437.445
BUGSAT 1 05 Aug 12:48:06 12:51:52 37° 262° (W) 12:55:37 437.445
SPROUT 05 Aug 12:50:12 12:52:50 16° 91° (E) 12:55:38 437.525
Cosmos 2491 05 Aug 12:52:30 13:01:14 78° 95° (E) 13:09:59 435.465 / 435.565
POLYITAN 1 05 Aug 12:55:07 12:58:20 21° 267° (W) 13:01:28 437.675
AIST 1 05 Aug 12:59:29 13:03:41 47° 282° (WNW) 13:07:52
VELOX 1 05 Aug 13:09:51 13:14:10 54° 287° (WNW) 13:18:29 145.980
POPSAT HIP 1 05 Aug 13:11:11 13:13:36 14° 270° (W) 13:15:51 437.405
ZACube-1 05 Aug 13:15:49 13:16:10 10° 298° (WNW) 13:16:15 437.345
HUMSAT D 05 Aug 13:20:50 13:23:43 17° 294° (WNW) 13:26:27 437.325/437.525
Oscar 19 05 Aug 13:21:11 13:25:35 31° 68° (ENE) 13:30:05 437.125/150
QB50P2 05 Aug 13:21:21 13:22:41 11° 272° (W) 13:23:46 145.880/145.840
Gurwin Techsat 1B 05 Aug 13:23:18 13:24:07 10° 58° (ENE) 13:25:15 435.225
50 SAT 05 Aug 13:27:55 13:31:13 24° 291° (WNW) 13:34:24 437.505
UKube-1 05 Aug 13:38:58 13:42:03 19° 294° (WNW) 13:44:59 .
ESTCUBE 1 05 Aug 13:40:44 13:44:53 37° 289° (WNW) 13:48:58 437.505/2401.250
Cosmos 2504 05 Aug 13:52:15 14:00:29 53° 75° (ENE) 14:08:52 435.465 / 435.565
CUBEBUG 1 05 Aug 14:08:27 14:11:52 22° 292° (WNW) 14:15:11 437.445
AISAT 05 Aug 14:10:21 14:12:44 14° 296° (WNW) 14:14:56 437.250
YUBILEINY 05 Aug 14:16:11 14:21:47 18° 281° (WNW) 14:26:54 435.215
TISAT 1 05 Aug 14:17:30 14:21:44 89° 284° (WNW) 14:25:58 437.305
SWISSCUBE 05 Aug 14:17:31 14:20:25 16° 90° (E) 14:23:31 437.505
JAS-2 05 Aug 14:19:26 14:23:37 19° 56° (NE) 14:28:22 435.910
SPROUT 05 Aug 14:25:04 14:29:12 44° 287° (WNW) 14:33:17 437.525
CUSAT 1 05 Aug 14:36:14 14:40:05 26° 75° (ENE) 14:44:59 437.405
ITUPSAT 1 05 Aug 14:40:10 14:44:04 25° 94° (E) 14:48:02 437.325
DANDE 05 Aug 14:51:11 14:54:21 21° 75° (ENE) 14:58:21 436.750
ITAMSAT 1 05 Aug 14:52:04 14:57:09 58° 73° (ENE) 15:02:18 435.822/435.867
Cosmos 2491 05 Aug 14:52:26 14:59:14 23° 298° (WNW) 15:05:43 435.465 / 435.565
Gurwin Techsat 1B 05 Aug 14:58:00 15:03:17 74° 75° (ENE) 15:08:37 435.225
AO-7 05 Aug 14:58:23 15:04:50 27° 55° (NE) 15:11:32 29.400- 29.500
Oscar 19 05 Aug 15:00:17 15:04:54 33° 264° (W) 15:09:29 437.125/150
HORYU 2 05 Aug 15:14:28 15:16:08 12° 62° (ENE) 15:18:01 437.375
BEESAT 05 Aug 15:32:32 15:37:21 87° 104° (ESE) 15:42:07 436.000
Cosmos 2504 05 Aug 15:44:54 15:52:27 36° 274° (W) 15:59:55 435.465 / 435.565
SWISSCUBE 05 Aug 15:54:01 15:58:40 53° 288° (WNW) 16:03:16 437.505
SO-50 05 Aug 15:55:23 15:57:17 12° 31° (NNE) 15:59:20 436.795
JAS-2 05 Aug 16:01:21 16:07:40 88° 255° (WSW) 16:14:54 435.910
STARS 05 Aug 16:04:09 16:07:15 19° 92° (E) 16:10:28 437.465
VERMONT LUNAR 05 Aug 16:16:54 16:18:16 12° 150° (SSE) 16:19:42 437.305
ITUPSAT 1 05 Aug 16:17:42 16:22:03 35° 291° (WNW) 16:26:20 437.325
CUSAT 1 05 Aug 16:18:13 16:22:37 38° 263° (W) 16:28:12 437.405
DANDE 05 Aug 16:33:25 16:37:25 38° 262° (W) 16:42:36 436.750
ITAMSAT 1 05 Aug 16:33:36 16:37:07 17° 270° (W) 16:40:26 435.822/435.867
Gurwin Techsat 1B 05 Aug 16:41:07 16:43:57 14° 272° (W) 16:46:30 435.225
KKS-1 05 Aug 16:42:24 16:46:54 82° 103° (ESE) 16:51:22 437.445
HORYU 2 05 Aug 16:47:47 16:52:13 73° 258° (WSW) 16:56:43 437.375
AO-7 05 Aug 16:48:34 16:56:57 77° 254° (WSW) 17:05:21 29.400- 29.500
GONETS M04 05 Aug 16:59:26 17:07:36 44° 72° (ENE) 17:15:53
BEESAT 05 Aug 17:12:53 17:14:33 11° 300° (WNW) 17:15:59 436.000
Cosmos 2499 05 Aug 17:14:37 17:18:40 14° 55° (NE) 17:23:19 435.465 / 435.565
PCSat 05 Aug 17:20:43 17:25:37 33° 50° (NE) 17:30:32 145.827
SO-50 05 Aug 17:34:06 17:38:59 56° 52° (NE) 17:43:47 436.795
STARS 05 Aug 17:39:43 17:43:53 40° 289° (WNW) 17:48:02 437.465
Cubesat XI-IV 05 Aug 17:42:42 17:46:12 19° 62° (ENE) 17:49:53 437.490
JAS-2 05 Aug 17:50:34 17:54:07 14° 279° (W) 17:57:25 435.910
VERMONT LUNAR 05 Aug 17:51:29 17:54:29 42° 164° (SSE) 17:57:31 437.305
PHONESAT 2.4 05 Aug 17:52:28 17:52:56 10° 147° (SSE) 17:53:32 2401.200-2431.200
MOZHAYETS 4 05 Aug 18:08:44 18:13:23 85° 103° (ESE) 18:17:59
KKS-1 05 Aug 18:21:37 18:22:56 11° 298° (WNW) 18:24:03 437.445
CUTE-I 05 Aug 18:35:05 18:40:14 51° 71° (ENE) 18:45:26 437.470
CUBESAT XI-V 05 Aug 18:40:54 18:43:37 16° 90° (E) 18:46:31 437.345
AO-7 05 Aug 18:46:50 18:51:18 14° 275° (W) 18:55:09 29.400- 29.500
GONETS M04 05 Aug 18:56:25 19:04:28 42° 272° (W) 19:12:25
PCSat 05 Aug 19:04:05 19:09:05 38° 248° (WSW) 19:14:01 145.827
HO-68 05 Aug 19:04:07 19:06:10 12° 50° (NE) 19:08:38 435.675
Cosmos 2499 05 Aug 19:05:08 19:13:56 66° 78° (ENE) 19:22:44 435.465 / 435.565
SO-50 05 Aug 19:15:37 19:19:09 19° 249° (WSW) 19:22:30 436.795
